Disclaimer

Please do not use the information listed here in-flight or in-navigation, as they are not provided to us by the airports but are provided by volunteers, so they might be outdated.

Search


Regions


Airport information page

Radio informations:
Tower (TWR) - 118.1 MHz
MEDAN APP - 119.7 MHz

Airport informations:
Latitude: 03° 33' 29.00" N
Longitude: 098° 40' 18.20" E
Elevation: 114 feet - 35 meters
Operating hours: N/A
Operating agency: Military-civil joint use airport
Timezone: UTC+7
Fuel: Jet A1, without icing nhibitor.

Runway information:
05/23 - 9514 x 148 feet< - >2900 x 45 meters

Recent METARs:
WIMM 152130Z 00000KT 6000 SCT018 24/24 Q1009 NOSIG
WIMM 152130Z 00000KT 6000 SCT018 24/24 Q1009 NOSIG
WIMM 152230Z 25001KT 1200 -RA BKN018 24/23 Q1010 TEMPO FM 2230 TL 2330 18005KT 0800 RA

Airport on the map: